Track OSCAR 15 (UOSAT 4) now! 10-day predictions OSCAR 15 (UOSAT 4) is classified as:
1 20438U 90005C 21016.86580706 -.00000017 00000-0 11185-4 0 9990 2 20438 98.8918 2.2846 0010049 9.9887 48.0965 14.31070041617365